When you browse on this site, cookies collect data to enhance your experience and personalize the content and advertising you see.
Visit our Privacy Policy to learn more. By continuing to use the site, you agree to this use of cookies and data.
  • In Hungary
  • List of Countries
  • For 7 days
  • Water Temperature
  • Weather Map
  • News
  • Weather Widgets
  • user-avatar
    Login

    Hourly Weather Buczyna

    Today, 14 December, Saturday

    Time Temperature Precipitation Wind Pressure Humidity
    00:00 -1°C° 0 mm 4 mps 731 mmHg 90%
    01:00 0°C° 0 mm 3 mps 731 mmHg 90%
    02:00 -1°C° 0.1 mm 4 mps 731 mmHg 92%
    03:00 -1°C° 0.1 mm 4 mps 730 mmHg 94%
    04:00 -1°C° 0.1 mm 4 mps 730 mmHg 96%
    05:00 0°C° 0.2 mm 4 mps 730 mmHg 96%
    06:00 0°C° 0.2 mm 4 mps 730 mmHg 97%
    07:00 0°C° 0.2 mm 4 mps 730 mmHg 97%
    08:00 +1°C° 0.2 mm 4 mps 731 mmHg 96%
    09:00 +1°C° 0.2 mm 4 mps 731 mmHg 96%
    10:00 +1°C° 0.2 mm 5 mps 731 mmHg 96%
    11:00 +1°C° 0 mm 5 mps 731 mmHg 91%
    12:00 +2°C° 0 mm 5 mps 731 mmHg 87%
    13:00 +2°C° 0 mm 5 mps 731 mmHg 82%
    14:00 +2°C° 0.5 mm 5 mps 732 mmHg 87%
    15:00 +1°C° 0.5 mm 5 mps 732 mmHg 91%
    16:00 +1°C° 0.5 mm 5 mps 733 mmHg 96%
    17:00 +1°C° 0.1 mm 6 mps 733 mmHg 94%
    18:00 +1°C° 0.1 mm 6 mps 734 mmHg 92%
    19:00 +2°C° 0.1 mm 7 mps 735 mmHg 91%
    20:00 0°C° 0.1 mm 7 mps 735 mmHg 86%
    21:00 0°C° 0.1 mm 7 mps 736 mmHg 81%
    22:00 0°C° 0.1 mm 7 mps 737 mmHg 76%
    23:00 0°C° 0 mm 7 mps 738 mmHg 77%

    Tomorrow, 15 December, Sunday

    Time Temperature Precipitation Wind Pressure Humidity
    00:00 +1°C° 0 mm 6 mps 738 mmHg 78%
    01:00 -1°C° 0 mm 6 mps 739 mmHg 78%
    02:00 +1°C° 0.1 mm 6 mps 739 mmHg 82%
    03:00 +1°C° 0.1 mm 5 mps 740 mmHg 86%
    04:00 +1°C° 0.1 mm 5 mps 740 mmHg 89%
    05:00 +1°C° 0 mm 5 mps 740 mmHg 90%
    06:00 0°C° 0 mm 5 mps 740 mmHg 90%
    07:00 0°C° 0 mm 5 mps 740 mmHg 91%
    08:00 -1°C° 0.1 mm 6 mps 740 mmHg 86%
    09:00 0°C° 0.1 mm 7 mps 740 mmHg 81%
    10:00 0°C° 0.1 mm 7 mps 739 mmHg 76%
    11:00 +2°C° 0.8 mm 8 mps 739 mmHg 80%
    12:00 +4°C° 0.8 mm 8 mps 738 mmHg 85%
    13:00 +5°C° 0.8 mm 9 mps 738 mmHg 89%
    14:00 +4°C° 0.1 mm 8 mps 739 mmHg 81%
    15:00 +4°C° 0.1 mm 8 mps 740 mmHg 73%
    16:00 +2°C° 0.1 mm 8 mps 741 mmHg 65%
    17:00 +2°C° 0 mm 8 mps 743 mmHg 67%
    18:00 +2°C° 0 mm 7 mps 744 mmHg 69%
    19:00 +2°C° 0 mm 7 mps 745 mmHg 72%
    20:00 +2°C° 0 mm 7 mps 746 mmHg 74%
    21:00 +1°C° 0 mm 6 mps 747 mmHg 77%
    22:00 +1°C° 0 mm 6 mps 748 mmHg 80%
    23:00 0°C° 0 mm 5 mps 748 mmHg 82%

    Day after tomorrow, 16 December, Monday

    Time Temperature Precipitation Wind Pressure Humidity
    00:00 0°C° 0 mm 5 mps 748 mmHg 83%
    01:00 0°C° 0 mm 5 mps 749 mmHg 85%
    02:00 0°C° 0 mm 4 mps 749 mmHg 85%
    03:00 0°C° 0 mm 4 mps 749 mmHg 86%
    04:00 0°C° 0 mm 4 mps 750 mmHg 86%
    05:00 -1°C° 0 mm 4 mps 750 mmHg 86%
    06:00 0°C° 0 mm 3 mps 750 mmHg 86%
    07:00 0°C° 0 mm 3 mps 750 mmHg 87%
    08:00 0°C° 0 mm 3 mps 750 mmHg 86%
    09:00 0°C° 0 mm 4 mps 750 mmHg 86%
    10:00 +1°C° 0 mm 4 mps 750 mmHg 86%
    11:00 +1°C° 0 mm 4 mps 750 mmHg 86%
    12:00 +3°C° 0 mm 4 mps 750 mmHg 86%
    13:00 +4°C° 0 mm 4 mps 749 mmHg 87%
    14:00 +4°C° 0 mm 4 mps 749 mmHg 89%
    15:00 +4°C° 0 mm 4 mps 749 mmHg 92%
    16:00 +4°C° 0 mm 3 mps 749 mmHg 94%
    17:00 +4°C° 0 mm 4 mps 749 mmHg 93%
    18:00 +4°C° 0 mm 4 mps 748 mmHg 91%
    19:00 +5°C° 0 mm 4 mps 748 mmHg 90%
    20:00 +5°C° 0 mm 4 mps 748 mmHg 88%
    21:00 +5°C° 0 mm 4 mps 748 mmHg 87%
    22:00 +5°C° 0 mm 4 mps 748 mmHg 85%
    23:00 +5°C° 0 mm 4 mps 748 mmHg 86%

    17 December, Tuesday

    Time Temperature Precipitation Wind Pressure Humidity
    00:00 +4°C° 0 mm 4 mps 748 mmHg 87%
    01:00 +4°C° 0 mm 4 mps 748 mmHg 88%
    02:00 +4°C° 0 mm 4 mps 748 mmHg 88%
    03:00 +3°C° 0 mm 4 mps 747 mmHg 89%
    04:00 +3°C° 0 mm 4 mps 747 mmHg 90%
    05:00 +3°C° 0 mm 4 mps 747 mmHg 89%
    06:00 +3°C° 0 mm 4 mps 747 mmHg 89%
    07:00 +3°C° 0 mm 4 mps 747 mmHg 88%
    08:00 +4°C° 0 mm 4 mps 747 mmHg 87%
    09:00 +4°C° 0 mm 4 mps 747 mmHg 85%
    10:00 +4°C° 0 mm 4 mps 747 mmHg 84%
    11:00 +5°C° 0 mm 4 mps 747 mmHg 81%
    12:00 +6°C° 0 mm 5 mps 747 mmHg 79%
    13:00 +6°C° 0 mm 5 mps 747 mmHg 77%
    14:00 +6°C° 0 mm 4 mps 747 mmHg 79%
    15:00 +6°C° 0 mm 4 mps 747 mmHg 81%
    16:00 +5°C° 0 mm 3 mps 747 mmHg 83%
    17:00 +5°C° 0 mm 4 mps 747 mmHg 84%
    18:00 +5°C° 0 mm 4 mps 747 mmHg 84%
    19:00 +5°C° 0 mm 4 mps 747 mmHg 85%
    20:00 +5°C° 0 mm 4 mps 747 mmHg 84%
    21:00 +5°C° 0 mm 4 mps 747 mmHg 84%
    22:00 +5°C° 0 mm 4 mps 747 mmHg 83%
    23:00 +5°C° 0 mm 3 mps 747 mmHg 83%

    18 December, Wednesday

    Time Temperature Precipitation Wind Pressure Humidity
    00:00 +5°C° 0 mm 3 mps 747 mmHg 84%
    01:00 +5°C° 0 mm 3 mps 747 mmHg 84%
    02:00 +5°C° 0 mm 3 mps 747 mmHg 84%
    03:00 +5°C° 0 mm 3 mps 748 mmHg 83%
    04:00 +5°C° 0 mm 4 mps 748 mmHg 83%
    05:00 +4°C° 0 mm 3 mps 748 mmHg 83%
    06:00 +4°C° 0 mm 3 mps 748 mmHg 83%
    07:00 +4°C° 0 mm 3 mps 748 mmHg 83%
    08:00 +4°C° 0 mm 3 mps 749 mmHg 83%
    09:00 +4°C° 0 mm 3 mps 749 mmHg 84%
    10:00 +4°C° 0 mm 3 mps 750 mmHg 85%
    11:00 +5°C° 0 mm 3 mps 750 mmHg 86%
    12:00 +5°C° 0 mm 3 mps 750 mmHg 88%
    13:00 +7°C° 0 mm 3 mps 751 mmHg 89%
    14:00 +6°C° 0 mm 2 mps 751 mmHg 91%
    15:00 +6°C° 0 mm 2 mps 751 mmHg 93%
    16:00 +5°C° 0 mm 2 mps 752 mmHg 96%
    17:00 +5°C° 0 mm 2 mps 752 mmHg 96%
    18:00 +4°C° 0 mm 2 mps 752 mmHg 96%
    19:00 +4°C° 0 mm 2 mps 752 mmHg 96%
    20:00 +4°C° 0 mm 2 mps 752 mmHg 95%
    21:00 +4°C° 0 mm 2 mps 753 mmHg 95%
    22:00 +3°C° 0 mm 2 mps 753 mmHg 95%
    23:00 +3°C° 0 mm 2 mps 753 mmHg 94%

    19 December, Thursday

    Time Temperature Precipitation Wind Pressure Humidity
    00:00 +4°C° 0 mm 1 mps 753 mmHg 94%
    01:00 +4°C° 0 mm 1 mps 753 mmHg 94%
    02:00 +4°C° 0 mm 1 mps 752 mmHg 94%
    03:00 +4°C° 0 mm 1 mps 752 mmHg 93%
    04:00 +4°C° 0 mm 1 mps 752 mmHg 93%
    05:00 +4°C° 0 mm 1 mps 752 mmHg 93%
    06:00 +2°C° 0 mm 0 mps 752 mmHg 93%
    07:00 +2°C° 0 mm 0 mps 752 mmHg 93%
    08:00 +2°C° 0 mm 0 mps 753 mmHg 92%
    09:00 +4°C° 0 mm 1 mps 753 mmHg 91%
    10:00 +4°C° 0 mm 1 mps 753 mmHg 90%
    11:00 +4°C° 0 mm 1 mps 753 mmHg 87%
    12:00 +5°C° 0 mm 1 mps 753 mmHg 84%
    13:00 +6°C° 0 mm 1 mps 753 mmHg 81%
    14:00 +5°C° 0 mm 1 mps 753 mmHg 83%
    15:00 +3°C° 0 mm 2 mps 753 mmHg 85%
    16:00 +2°C° 0 mm 2 mps 753 mmHg 87%
    17:00 +1°C° 0 mm 3 mps 753 mmHg 87%
    18:00 +1°C° 0 mm 3 mps 753 mmHg 86%
    19:00 0°C° 0 mm 3 mps 753 mmHg 86%
    20:00 0°C° 0 mm 3 mps 753 mmHg 84%
    21:00 -1°C° 0 mm 4 mps 752 mmHg 83%
    22:00 -1°C° 0 mm 4 mps 752 mmHg 82%
    23:00 -1°C° 0 mm 4 mps 752 mmHg 82%
    Show more